DW1628 Weather Reports


Display with metric or nautical units.
time (UTC)temp
F
wind
direction
speed
MPH
gust
MPH
rain 1hr
in
rain 24hr
in
rain mn
in
humidity
%
barometer
mb
20200404002031 52 177 0.0 6.0 0.00 0.00 0.00 46 1016.0
20200404001612 53 177 0.0 6.0 0.00 0.00 0.00 45 1016.2
20200404001029 52 159 1.0 5.0 0.00 0.00 0.00 47 1016.2
20200404000551 52 151 0.0 3.0 0.00 0.00 0.00 47 1016.3
20200404000043 52 169 0.0 3.0 0.00 0.04 0.00 48 1016.3
20200403235530 52 168 0.0 5.0 0.00 0.04 0.00 49 1016.4
20200403235026 52 168 0.0 5.0 0.00 0.04 0.00 47 1016.5
20200403234028 52 168 1.0 6.0 0.00 0.04 0.00 45 1016.7
20200403233527 52 168 2.0 6.0 0.00 0.04 0.00 46 1016.7
20200403233037 52 164 1.0 6.0 0.00 0.04 0.00 45 1016.8
20200403232526 52 158 0.0 4.0 0.00 0.04 0.00 44 1016.9
20200403232032 52 173 1.0 4.0 0.00 0.04 0.00 46 1016.9
20200403231525 53 173 0.0 5.0 0.00 0.04 0.00 44 1017.0
20200403231024 52 173 0.0 1.0 0.00 0.04 0.00 47 1017.0
20200403230526 52 172 0.0 3.0 0.00 0.04 0.00 44 1017.0
20200403230058 53 172 1.0 3.0 0.00 0.04 0.00 44 1017.2
20200403225522 52 186 0.0 0.0 0.00 0.04 0.00 43 1017.3
20200403225023 52 186 0.0 3.0 0.00 0.04 0.00 44 1017.3
20200403224017 52 186 0.0 1.0 0.00 0.04 0.00 45 1017.6
20200403223525 52 186 0.0 3.0 0.00 0.04 0.00 46 1017.6
20200403223026 52 184 1.0 6.0 0.00 0.04 0.00 43 1017.7
20200403222516 52 176 0.0 6.0 0.00 0.04 0.00 47 1017.7
20200403222023 52 148 0.0 4.0 0.00 0.04 0.00 46 1017.8
20200403221516 52 74 0.0 4.0 0.00 0.04 0.00 42 1017.9
20200403221014 52 46 0.0 1.0 0.00 0.04 0.00 44 1017.9
20200403220516 52 46 0.0 1.0 0.00 0.04 0.00 44 1018.1
20200403220014 52 143 0.0 3.0 0.00 0.04 0.00 43 1018.1
20200403215512 52 90 0.0 2.0 0.00 0.04 0.00 46 1018.3
20200403215011 52 22 0.0 3.0 0.00 0.04 0.00 42 1018.4
20200403214012 52 153 0.0 2.0 0.00 0.04 0.00 47 1018.6
20200403213517 51 61 0.0 2.0 0.00 0.04 0.00 46 1018.7
20200403213021 51 165 0.0 1.0 0.00 0.04 0.00 45 1018.8
20200403212510 52 165 0.0 3.0 0.00 0.04 0.00 46 1018.8
20200403212014 52 165 0.0 4.0 0.00 0.04 0.00 45 1018.8
20200403211512 52 96 0.0 4.0 0.00 0.04 0.00 45 1018.9
20200403211009 52 180 0.0 3.0 0.00 0.04 0.00 46 1019.0
20200403210507 51 169 0.0 6.0 0.00 0.04 0.00 47 1019.1
20200403210016 51 169 2.0 6.0 0.00 0.04 0.00 46 1019.1
20200403205510 52 176 0.0 6.0 0.00 0.04 0.00 46 1019.1
20200403205005 52 177 0.0 5.0 0.00 0.04 0.00 50 1019.2
20200403204005 51 184 1.0 5.0 0.00 0.04 0.00 51 1019.3
20200403203504 50 15 1.0 3.0 0.00 0.04 0.00 54 1019.3
20200403203005 50 71 0.0 4.0 0.00 0.04 0.00 55 1019.4
20200403202502 50 165 0.0 6.0 0.00 0.04 0.00 57 1019.5
20200403202005 51 163 1.0 8.0 0.00 0.04 0.00 57 1019.6
20200403201515 51 173 2.0 7.0 0.00 0.04 0.00 57 1019.6
20200403201001 51 156 0.0 5.0 0.00 0.04 0.00 56 1019.6
20200403200149 50 175 0.0 5.0 0.00 0.04 0.00 63 1019.7
20200403195559 49 175 2.0 5.0 0.00 0.04 0.00 61 1019.8
20200403195105 49 175 0.0 6.0 0.00 0.04 0.00 62 1020.0
20200403194109 49 185 0.0 6.0 0.00 0.04 0.00 63 1020.0
20200403193559 50 175 3.0 9.0 0.00 0.04 0.00 60 1020.0
20200403193228 51 188 3.0 9.0 0.00 0.04 0.00 61 1020.1
20200403192558 51 182 4.0 8.0 0.00 0.04 0.00 61 1020.1
20200403192102 50 184 1.0 9.0 0.00 0.04 0.00 59 1020.2
20200403191717 51 186 3.0 9.0 0.00 0.04 0.00 59 1020.3
20200403191057 51 173 0.0 4.0 0.00 0.04 0.00 60 1020.4
20200403190604 50 173 0.0 4.0 0.00 0.04 0.00 56 1020.4
20200403190142 50 189 0.0 4.0 0.00 0.04 0.00 56 1020.5
20200403185551 50 194 0.0 5.0 0.00 0.04 0.00 62 1020.5
20200403185049 50 349 1.0 6.0 0.00 0.04 0.00 63 1020.5
20200403184048 49 167 2.0 6.0 0.00 0.04 0.00 63 1020.6
20200403183551 49 51 0.0 8.0 0.00 0.04 0.00 63 1020.6
20200403183134 49 174 0.0 4.0 0.00 0.04 0.00 63 1020.8
20200403182545 48 182 1.0 4.0 0.00 0.04 0.00 65 1020.9
20200403182048 48 360 0.0 6.0 0.00 0.04 0.00 66 1020.9
20200403181616 47 172 3.0 6.0 0.00 0.04 0.00 66 1020.9
20200403181045 46 175 0.0 3.0 0.00 0.04 0.00 69 1020.9
20200403180548 46 175 0.0 4.0 0.00 0.04 0.00 67 1020.9
20200403180153 45 181 2.0 4.0 0.00 0.04 0.00 67 1021.0
20200403175538 45 59 0.0 0.0 0.00 0.04 0.00 69 1021.0
20200403175037 45 59 0.0 0.0 0.00 0.04 0.00 67 1021.0
20200403174056 45 65 0.0 0.0 0.00 0.04 0.00 72 1021.1
20200403173552 44 65 0.0 3.0 0.00 0.04 0.00 72 1021.1
20200403173112 44 65 0.0 3.0 0.00 0.04 0.00 74 1021.1
20200403172537 43 65 0.0 3.0 0.00 0.04 0.00 74 1021.1
20200403172043 43 51 0.0 4.0 0.00 0.04 0.00 74 1021.2
20200403171645 42 51 0.0 4.0 0.00 0.04 0.00 76 1021.2
20200403171049 42 77 0.0 4.0 0.00 0.04 0.00 77 1021.2
20200403170600 42 78 1.0 4.0 0.00 0.04 0.00 78 1021.3
20200403170054 41 67 1.0 4.0 0.00 0.04 0.00 79 1021.3
20200403165535 41 69 1.0 3.0 0.00 0.04 0.00 79 1021.3
20200403165028 41 69 1.0 4.0 0.00 0.04 0.00 80 1021.3
20200403164025 40 59 0.0 3.0 0.00 0.04 0.00 81 1021.5
20200403163530 40 71 0.0 3.0 0.00 0.04 0.00 81 1021.5
20200403163059 40 71 1.0 4.0 0.00 0.04 0.00 81 1021.6
20200403162521 39 76 1.0 4.0 0.00 0.04 0.00 81 1021.7
20200403162041 39 69 1.0 5.0 0.00 0.04 0.00 82 1021.6
20200403161524 39 79 3.0 5.0 0.00 0.04 0.00 82 1021.7
20200403161034 39 70 0.0 4.0 0.00 0.04 0.00 85 1021.7
20200403160516 39 69 1.0 4.0 0.00 0.04 0.00 85 1021.7
20200403160100 38 80 2.0 4.0 0.00 0.04 0.00 87 1021.7
20200403155514 38 62 2.0 4.0 0.00 0.04 0.00 89 1021.8
20200403155013 37 82 0.0 4.0 0.00 0.04 0.00 92 1021.7
20200403154013 37 101 0.0 2.0 0.00 0.04 0.00 96 1021.9
20200403153512 36 103 0.0 2.0 0.00 0.04 0.00 96 1021.8
20200403153020 36 103 0.0 3.0 0.00 0.04 0.00 96 1021.9
20200403152529 36 103 0.0 3.0 0.00 0.04 0.00 96 1021.9
20200403152012 35 103 1.0 3.0 0.00 0.04 0.00 96 1021.9
20200403151535 35 136 0.0 2.0 0.00 0.04 0.00 96 1022.0
20200403151011 35 136 0.0 0.0 0.00 0.04 0.00 96 1022.0
20200403150510 35 136 0.0 0.0 0.00 0.04 0.00 96 1022.0
20200403150009 35 136 0.0 0.0 0.00 0.05 0.00 96 1022.0
20200403145509 35 136 0.0 0.0 0.00 0.05 0.00 96 1021.9
20200403145009 35 136 0.0 0.0 0.00 0.05 0.00 95 1022.0
20200403144015 35 136 0.0 0.0 0.00 0.05 0.00 95 1022.0
20200403143510 35 136 0.0 0.0 0.00 0.05 0.00 95 1022.0
20200403143024 35 136 0.0 0.0 0.00 0.05 0.00 95 1021.9
20200403142512 35 136 0.0 0.0 0.00 0.05 0.00 95 1021.9
20200403142008 35 136 0.0 0.0 0.00 0.05 0.00 95 1022.0
20200403141506 35 136 0.0 0.0 0.00 0.05 0.00 95 1022.0
20200403141029 35 136 0.0 0.0 0.00 0.05 0.00 95 1022.0
20200403140520 35 136 0.0 0.0 0.00 0.05 0.00 95 1022.0
20200403140050 36 136 0.0 0.0 0.00 0.05 0.00 95 1022.0
20200403135512 36 136 0.0 0.0 0.00 0.05 0.00 95 1022.1
20200403135028 36 136 0.0 1.0 0.00 0.05 0.00 95 1022.0
20200403134017 36 140 0.0 0.0 0.00 0.05 0.00 95 1022.1
20200403133514 36 140 0.0 0.0 0.00 0.05 0.00 95 1022.1
20200403133032 36 140 0.0 0.0 0.00 0.05 0.00 95 1022.1
20200403132518 36 140 0.0 0.0 0.00 0.05 0.00 95 1022.1
20200403132017 36 140 0.0 0.0 0.00 0.05 0.00 95 1022.1
20200403131514 36 140 0.0 0.0 0.00 0.05 0.00 95 1022.0
20200403131008 36 140 0.0 0.0 0.00 0.05 0.00 95 1022.0
20200403130525 36 140 0.0 0.0 0.00 0.05 0.00 95 1022.0
20200403130011 36 140 0.0 0.0 0.00 0.05 0.00 95 1021.9
20200403125514 36 140 0.0 0.0 0.00 0.05 0.00 95 1021.9
20200403125010 36 140 0.0 0.0 0.00 0.05 0.00 95 1022.1
20200403124009 36 140 0.0 0.0 0.00 0.05 0.00 95 1022.1
20200403123509 36 140 0.0 1.0 0.00 0.05 0.00 95 1022.1
20200403123027 36 140 0.0 2.0 0.00 0.05 0.00 95 1022.2
20200403122509 36 140 0.0 2.0 0.00 0.05 0.00 95 1022.2
20200403122009 36 140 0.0 2.0 0.00 0.05 0.00 95 1022.2
20200403121515 36 140 1.0 2.0 0.00 0.05 0.00 95 1022.2
20200403121007 36 141 0.0 2.0 0.00 0.05 0.00 95 1022.3
20200403120507 36 144 0.0 1.0 0.00 0.05 0.00 95 1022.3
20200403120036 36 144 0.0 2.0 0.00 0.05 0.00 96 1022.4
20200403115507 36 144 0.0 2.0 0.00 0.05 0.00 96 1022.5
20200403115010 36 144 0.0 1.0 0.00 0.05 0.00 96 1022.4
20200403114007 36 144 0.0 0.0 0.00 0.05 0.00 96 1022.4
20200403113509 36 144 0.0 0.0 0.00 0.05 0.00 96 1022.6
20200403113015 36 144 0.0 0.0 0.00 0.05 0.00 96 1022.6
20200403112506 36 144 0.0 0.0 0.00 0.05 0.00 96 1022.6
20200403112014 36 144 0.0 0.0 0.00 0.05 0.00 96 1022.6
20200403111526 36 144 0.0 0.0 0.00 0.05 0.00 96 1022.7
20200403111004 36 144 0.0 0.0 0.00 0.05 0.00 96 1022.7
20200403110504 36 144 0.0 0.0 0.00 0.05 0.00 96 1022.7
20200403110015 36 144 0.0 0.0 0.00 0.06 0.00 96 1022.7
20200403105504 36 144 0.0 0.0 0.00 0.06 0.00 96 1022.7
20200403105004 36 144 0.0 0.0 0.00 0.06 0.00 96 1022.8
20200403104009 36 144 0.0 0.0 0.00 0.06 0.00 96 1022.8
20200403103513 36 144 0.0 2.0 0.00 0.06 0.00 96 1022.8
20200403103040 36 144 0.0 2.0 0.00 0.06 0.00 96 1022.9
20200403102513 36 144 0.0 2.0 0.00 0.06 0.00 96 1022.8
20200403102008 36 144 0.0 2.0 0.00 0.06 0.00 96 1022.8
20200403101528 36 144 1.0 2.0 0.00 0.06 0.00 96 1022.8
20200403101006 36 146 0.0 2.0 0.00 0.06 0.00 96 1022.8
20200403100506 35 146 0.0 0.0 0.00 0.06 0.00 96 1022.9
20200403100033 35 146 0.0 0.0 0.00 0.06 0.00 96 1022.9
20200403095506 35 146 0.0 0.0 0.00 0.06 0.00 95 1022.9
20200403095012 35 146 0.0 0.0 0.00 0.06 0.00 95 1022.9
20200403094056 35 146 0.0 0.0 0.00 0.06 0.00 95 1023.0
20200403093556 35 146 0.0 0.0 0.00 0.06 0.00 95 1023.0
20200403093132 35 146 0.0 0.0 0.00 0.06 0.00 95 1023.0
20200403092601 35 146 0.0 1.0 0.00 0.06 0.00 95 1022.9
20200403092056 35 146 0.0 1.0 0.00 0.06 0.00 95 1022.9
20200403091813 35 146 0.0 1.0 0.00 0.06 0.00 96 1022.9
20200403091051 35 146 0.0 0.0 0.00 0.06 0.00 95 1023.0
20200403090550 35 146 0.0 0.0 0.00 0.06 0.00 95 1023.1
20200403090147 35 146 0.0 0.0 0.00 0.06 0.00 95 1023.1
20200403085555 35 146 0.0 0.0 0.00 0.06 0.00 95 1023.1
20200403085050 35 146 0.0 0.0 0.00 0.06 0.00 95 1023.2
20200403084640 35 146 0.0 0.0 0.00 0.06 0.00 95 1023.2
20200403084047 35 146 0.0 0.0 0.00 0.06 0.00 95 1023.2
20200403083547 35 146 0.0 0.0 0.00 0.06 0.00 95 1023.2
20200403083205 35 146 0.0 0.0 0.00 0.06 0.00 95 1023.2
20200403082550 35 146 0.0 0.0 0.00 0.06 0.00 95 1023.2
20200403082050 36 146 0.0 0.0 0.00 0.06 0.00 95 1023.2
20200403081648 36 146 0.0 0.0 0.00 0.06 0.00 95 1023.2
20200403081045 36 146 0.0 0.0 0.00 0.06 0.00 95 1023.2
20200403080545 36 146 0.0 0.0 0.00 0.06 0.00 95 1023.2
20200403080139 36 146 0.0 0.0 0.00 0.06 0.00 95 1023.2
20200403075544 36 146 0.0 0.0 0.00 0.06 0.00 95 1023.1
20200403075101 36 146 0.0 0.0 0.00 0.06 0.00 95 1023.2
20200403074624 36 146 0.0 0.0 0.00 0.06 0.00 94 1023.2
20200403074044 36 146 0.0 0.0 0.00 0.06 0.00 94 1023.2
20200403073541 36 146 0.0 0.0 0.00 0.06 0.00 94 1023.2
20200403073127 36 169 0.0 0.0 0.00 0.06 0.00 93 1023.2
20200403072541 36 169 0.0 0.0 0.00 0.06 0.00 93 1023.2
20200403072041 37 169 0.0 0.0 0.00 0.06 0.00 93 1023.3
20200403071556 37 169 0.0 0.0 0.00 0.06 0.00 93 1023.3
20200403071041 38 169 0.0 0.0 0.00 0.06 0.00 93 1023.3
20200403070536 38 169 0.0 0.0 0.00 0.06 0.00 94 1023.3
20200403070225 38 169 0.0 0.0 0.00 0.06 0.06 94 1023.3
20200403065538 38 169 0.0 0.0 0.00 0.06 0.06 94 1023.3
20200403065042 38 169 0.0 0.0 0.00 0.06 0.06 94 1023.2
20200403064542 38 169 0.0 0.0 0.00 0.06 0.06 95 1023.2
20200403064038 38 169 0.0 0.0 0.00 0.06 0.06 95 1023.2
20200403063533 38 169 0.0 0.0 0.00 0.06 0.06 95 1023.2
20200403063103 38 169 0.0 0.0 0.00 0.06 0.06 95 1023.2
20200403062538 38 169 0.0 0.0 0.00 0.06 0.06 95 1023.1
20200403062044 38 169 0.0 0.0 0.00 0.06 0.06 95 1023.1
20200403061728 38 169 0.0 0.0 0.00 0.06 0.06 94 1023.1
20200403061033 38 169 0.0 0.0 0.00 0.06 0.06 95 1023.1
20200403060541 38 169 0.0 0.0 0.00 0.06 0.06 95 1023.1
20200403060104 39 169 0.0 0.0 0.00 0.06 0.06 94 1023.2
20200403055532 39 169 0.0 0.0 0.00 0.06 0.06 94 1023.2
20200403055032 39 169 0.0 0.0 0.00 0.06 0.06 94 1023.2
20200403054605 38 169 0.0 0.0 0.00 0.06 0.06 94 1023.1
20200403054048 38 169 0.0 0.0 0.00 0.06 0.06 94 1023.2
20200403053537 38 169 0.0 0.0 0.00 0.06 0.06 94 1023.2
20200403053050 38 169 0.0 0.0 0.00 0.06 0.06 93 1023.2
20200403052538 38 169 0.0 0.0 0.00 0.06 0.06 93 1023.2
20200403052036 39 169 0.0 0.0 0.00 0.06 0.06 93 1023.2
20200403051535 39 169 0.0 0.0 0.00 0.06 0.06 93 1023.2
20200403051033 39 169 0.0 0.0 0.00 0.06 0.06 93 1023.2
20200403050532 39 169 0.0 0.0 0.00 0.06 0.06 93 1023.2
20200403050035 39 169 0.0 0.0 0.00 0.06 0.06 93 1023.1
20200403045532 39 169 0.0 0.0 0.00 0.06 0.06 92 1023.1
20200403045045 39 169 0.0 0.0 0.00 0.06 0.06 92 1023.1
20200403044608 39 169 0.0 0.0 0.00 0.06 0.06 91 1023.1
20200403044033 39 169 0.0 0.0 0.00 0.06 0.06 91 1023.1
20200403043550 40 169 0.0 0.0 0.00 0.06 0.06 92 1023.1
20200403043213 40 169 0.0 0.0 0.00 0.06 0.06 92 1023.1
20200403042530 40 169 0.0 0.0 0.00 0.06 0.06 92 1023.1
20200403042039 40 169 0.0 0.0 0.00 0.06 0.06 92 1023.0
20200403041545 40 169 0.0 0.0 0.00 0.06 0.06 92 1023.0
20200403041036 40 169 0.0 0.0 0.00 0.06 0.06 92 1022.9
20200403040531 40 169 0.0 0.0 0.00 0.06 0.06 92 1023.0
20200403040139 41 169 0.0 0.0 0.00 0.07 0.06 92 1022.9
20200403035530 41 169 0.0 0.0 0.00 0.07 0.06 93 1022.8
20200403035037 41 169 0.0 0.0 0.00 0.07 0.06 93 1022.8
20200403034537 41 169 0.0 0.0 0.00 0.07 0.06 93 1022.8
20200403034030 41 169 0.0 0.0 0.00 0.07 0.06 92 1022.8
20200403033531 41 169 0.0 0.0 0.00 0.07 0.06 92 1022.7
20200403033058 41 169 0.0 0.0 0.00 0.07 0.06 91 1022.6
20200403032531 41 169 0.0 0.0 0.00 0.07 0.06 91 1022.5
20200403032030 42 169 0.0 0.0 0.00 0.07 0.06 91 1022.5
20200403031531 42 169 0.0 0.0 0.00 0.07 0.06 91 1022.4
20200403031029 42 169 0.0 0.0 0.00 0.07 0.06 91 1022.4
20200403030530 42 169 0.0 0.0 0.00 0.07 0.06 91 1022.4
20200403030030 42 169 0.0 0.0 0.00 0.07 0.06 92 1022.3
20200403025532 42 169 0.0 0.0 0.00 0.07 0.06 92 1022.3
20200403025029 42 169 0.0 0.0 0.00 0.07 0.06 92 1022.2
20200403024529 42 169 0.0 0.0 0.00 0.07 0.06 90 1022.2
20200403024030 42 169 0.0 0.0 0.00 0.07 0.06 90 1022.2
20200403023529 43 169 0.0 0.0 0.00 0.07 0.06 90 1022.2
20200403023112 43 169 0.0 0.0 0.00 0.07 0.06 89 1022.2
20200403022530 43 169 0.0 0.0 0.00 0.07 0.06 89 1022.2
20200403022100 43 169 0.0 0.0 0.00 0.07 0.06 89 1022.2
20200403021557 43 169 0.0 0.0 0.00 0.07 0.06 88 1022.2
20200403021031 43 169 0.0 0.0 0.00 0.07 0.06 88 1022.2
20200403020528 44 169 0.0 0.0 0.00 0.07 0.06 88 1022.1
20200403020116 44 169 0.0 0.0 0.00 0.08 0.06 87 1022.2
20200403015528 44 169 0.0 0.0 0.00 0.08 0.06 87 1022.2
20200403015031 44 169 0.0 0.0 0.00 0.08 0.06 87 1022.2
20200403014532 45 169 0.0 0.0 0.00 0.08 0.06 87 1022.2
20200403014054 45 169 0.0 0.0 0.00 0.08 0.06 87 1022.2
20200403013528 45 169 0.0 2.0 0.00 0.08 0.06 87 1022.2
20200403013035 45 169 0.0 2.0 0.00 0.08 0.06 85 1022.1
20200403012546 45 159 0.0 0.0 0.00 0.08 0.06 87 1022.2
20200403012028 45 159 0.0 1.0 0.00 0.08 0.06 87 1022.2
20200403011552 45 159 0.0 6.0 0.00 0.08 0.06 84 1022.3
20200403011030 45 142 0.0 7.0 0.00 0.08 0.06 83 1022.3
20200403010528 45 150 0.0 5.0 0.00 0.08 0.06 84 1022.4
20200403010043 45 169 0.0 5.0 0.02 0.10 0.06 84 1022.3
20200403005534 44 158 0.0 2.0 0.04 0.10 0.06 87 1022.4
20200403005027 44 158 0.0 3.0 0.04 0.10 0.06 88 1022.4
20200403004537 44 157 0.0 3.0 0.04 0.10 0.06 87 1022.5
20200403004045 44 157 0.0 3.0 0.04 0.10 0.06 87 1022.5
20200403003534 45 150 0.0 3.0 0.04 0.10 0.06 86 1022.5
20200403003142 45 157 0.0 5.0 0.04 0.10 0.06 85 1022.5
20200403002533 45 180 2.0 5.0 0.04 0.10 0.06 84 1022.6